Theta_e
336 338 339 339 335 333 333 333 333 333 333 332 331 333 333 333 335 339 340 348 352 352 351 353 352 352 352 352 355 354 355 358 355 354 356 356 353 352 352 349 344 342 343 347
337 338 338 337 333 332 332 333 333 333 332 331 332 333 334 334 335 335 338 344 349 351 352 355 353 352 352 354 356 359 361 358 353 346 350 358 354 352 353 352 350 346 344 350
337 337 336 333 332 334 333 334 333 331 331 332 334 338 338 337 337 338 337 341 345 349 352 353 355 353 351 355 358 361 362 360 354 344 347 357 355 353 352 353 354 349 350 349
336 337 337 334 333 334 333 333 333 331 332 335 336 344 343 345 343 340 341 342 344 347 347 353 354 353 349 354 356 361 364 363 361 356 357 358 356 354 352 353 355 354 352 352
336 335 335 334 333 334 333 332 332 332 333 334 336 345 352 347 348 347 343 342 344 344 345 346 352 354 352 353 354 357 363 366 365 363 359 359 356 355 355 352 354 353 353 351
334 334 333 332 332 333 332 331 332 334 335 336 339 344 353 352 349 347 344 344 345 344 345 343 343 354 354 353 352 355 362 365 365 365 363 359 358 356 357 356 354 355 352 349
331 330 331 330 331 333 331 332 335 339 341 342 339 341 348 345 341 345 344 348 347 346 344 345 351 351 356 353 352 356 360 363 364 365 365 363 364 358 355 354 355 355 356 354
330 330 329 330 331 331 333 333 336 347 348 346 340 343 347 345 341 343 348 349 350 350 352 353 352 352 354 355 353 354 363 365 365 364 363 365 364 362 360 358 358 355 354 354
331 330 330 332 332 331 332 335 334 337 341 342 344 347 339 339 342 342 352 352 353 358 359 358 357 355 355 355 357 359 363 363 363 363 363 363 363 363 362 359 360 356 357 357
330 336 336 334 332 332 333 335 338 338 345 348 350 355 352 344 341 342 344 351 358 359 356 357 357 357 357 357 357 360 360 363 363 363 363 363 363 363 362 362 357 357 359 357
329 333 337 336 334 334 333 333 334 336 338 345 347 355 344 343 342 342 348 351 356 358 355 352 351 353 353 353 353 354 355 357 361 359 359 360 359 359 361 364 362 359 357 356
330 331 334 336 335 334 337 338 337 340 343 339 342 345 342 340 339 341 340 347 353 351 352 350 351 351 350 351 353 353 354 353 354 354 358 359 356 353 356 358 359 359 359 354
335 333 333 334 336 340 340 336 333 333 334 341 339 348 338 338 336 336 338 339 350 353 353 353 351 351 353 354 352 351 351 352 354 355 356 357 359 357 357 356 357 358 354 349
333 334 334 335 338 342 341 341 338 335 337 337 337 340 340 338 338 337 337 337 336 351 354 354 354 352 350 348 347 345 343 347 351 356 358 356 356 355 355 355 354 355 355 357
334 335 336 336 337 341 341 342 339 339 338 338 337 335 336 341 340 339 338 338 339 341 348 347 346 345 343 343 343 341 340 340 345 349 350 352 354 353 355 355 355 357 356 356
335 338 336 337 335 336 336 336 335 335 335 335 335 336 340 339 338 338 340 338 337 341 344 342 342 342 341 340 339 339 340 340 339 340 343 346 347 347 347 347 350 354 354 350
336 337 340 340 337 337 339 336 337 337 336 333 333 331 339 340 340 340 341 340 338 339 340 340 342 341 340 339 339 341 339 339 339 339 339 339 340 341 343 345 346 349 353 350
334 335 336 337 337 340 336 335 335 333 332 331 332 333 339 339 338 336 335 339 339 339 340 340 339 337 336 335 334 334 334 335 336 338 339 340 339 340 339 338 342 346 345 349
334 334 335 337 336 336 334 336 335 335 335 337 335 337 335 335 335 335 337 337 337 337 336 334 333 332 332 331 331 331 333 335 335 336 338 337 336 339 340 340 339 338 344 346
333 334 332 333 335 336 341 335 334 333 337 336 336 336 336 335 337 335 333 332 331 330 330 330 329 329 330 331 331 332 334 335 335 336 339 338 337 338 339 340 341 340 340 343
333 337 336 333 331 334 337 335 333 337 343 336 334 333 333 333 332 331 329 329 328 328 328 328 329 330 331 331 332 334 335 337 336 336 336 337 337 338 339 338 339 340 340 340
336 337 335 337 336 341 335 336 341 336 332 331 330 329 329 328 328 328 329 331 331 332 331 330 331 332 332 331 332 335 337 336 336 336 337 337 336 336 335 336 338 339 340 339
335 336 340 338 339 335 332 331 330 328 329 329 329 328 328 329 329 329 332 333 333 332 332 333 332 332 332 332 331 333 332 331 331 333 334 335 334 334 336 336 337 337 337 337
336 335 332 331 332 332 330 329 330 329 329 329 328 328 328 329 330 332 332 331 332 332 332 332 332 333 333 332 333 334 333 332 333 333 331 332 333 333 334 333 335 336 336 336
335 335 332 330 335 333 333 331 329 328 328 328 329 331 331 331 331 332 332 333 331 331 331 331 331 331 332 333 333 333 333 333 331 331 334 332 333 332 333 333 334 335 334 335
331 334 332 335 333 332 331 329 328 329 329 331 331 331 330 330 332 331 330 330 330 330 330 331 331 331 332 332 333 333 333 333 334 335 335 334 333 332 331 331 331 332 331 330
Wind_Speed
16 14 11 3 8 7 6 7 9 3 3 3 5 10 10 7 7 13 9 16 17 16 16 24 21 22 21 22 23 22 21 18 19 18 15 13 15 16 17 20 18 16 13 11
14 10 5 7 4 5 7 9 4 4 2 7 10 11 5 3 2 2 6 12 16 17 18 17 22 22 19 20 23 23 20 20 19 15 14 11 12 15 13 13 16 15 15 15
16 9 8 1 3 10 14 8 10 6 11 14 11 7 7 5 6 4 6 8 13 15 19 18 18 21 19 20 21 22 20 20 21 18 11 12 10 13 14 16 13 17 15 17
15 16 5 4 8 9 10 8 10 9 13 12 13 2 2 19 12 7 5 9 13 15 13 19 20 21 20 20 19 20 22 21 18 16 15 14 14 13 19 18 16 18 20 22
11 13 11 3 11 11 11 11 7 11 10 15 12 10 9 18 21 19 5 5 14 13 15 25 10 26 26 25 19 17 18 20 18 19 19 17 16 16 16 16 12 16 20 23
14 7 6 9 10 11 7 11 14 15 12 11 4 9 5 5 22 22 4 6 4 10 11 25 51 26 22 26 23 19 18 16 17 20 19 17 17 16 11 15 15 14 19 22
13 14 12 7 11 11 12 15 10 6 10 4 11 2 12 21 33 26 1 9 6 6 3 4 13 14 19 28 23 22 22 19 17 16 17 19 18 15 14 11 15 17 19 21
12 14 17 13 14 11 15 16 9 4 7 3 12 9 13 23 27 6 12 9 7 8 11 14 10 8 15 20 25 25 28 23 21 18 17 17 17 16 17 17 21 26 22 29
12 6 12 2 13 8 16 15 7 11 22 7 7 9 11 10 13 9 14 11 11 19 17 16 12 11 9 8 5 13 30 24 19 18 18 18 19 20 18 20 26 22 12 11
17 2 6 7 6 12 16 12 10 7 3 6 5 7 13 9 7 9 5 11 19 23 20 8 7 12 8 3 5 7 5 11 7 11 15 14 16 20 20 18 19 13 11 8
13 12 6 4 8 11 8 11 11 9 6 3 5 6 18 6 3 5 10 7 17 19 16 6 4 5 9 9 10 5 8 10 16 15 17 16 15 15 19 18 17 18 15 15
10 13 8 13 12 13 8 7 6 2 9 3 9 5 12 8 6 6 4 10 12 6 9 8 10 12 10 9 8 9 8 7 9 12 5 17 21 21 18 17 16 14 18 14
8 7 8 14 8 17 11 12 13 15 13 12 7 10 4 6 3 7 9 11 8 6 6 8 3 5 9 10 8 6 6 6 7 10 12 13 19 21 15 15 16 17 16 10
4 13 15 13 2 8 7 22 14 13 8 11 12 6 10 7 13 9 8 7 7 5 2 3 10 10 12 5 6 5 6 9 9 9 6 4 7 7 4 6 9 13 14 12
5 12 15 17 4 6 14 17 14 16 14 11 14 17 13 14 12 8 5 3 3 6 6 7 11 11 10 8 4 1 3 5 9 10 10 8 6 6 6 9 10 9 10 14
11 12 14 17 19 19 13 16 18 12 14 15 15 11 13 12 9 8 7 8 6 2 2 0 2 4 5 5 7 3 4 2 5 9 9 6 4 4 5 6 5 8 11 15
13 13 10 14 20 20 16 13 12 10 7 13 11 11 9 7 6 6 6 3 4 5 3 6 5 7 5 6 11 8 6 3 5 7 10 10 9 8 9 10 9 10 12 12
10 8 8 11 13 15 16 5 5 4 6 8 10 6 11 9 9 9 9 6 6 5 4 6 6 11 13 15 14 14 11 10 9 11 14 13 13 13 12 14 14 13 13 15
9 8 10 9 12 14 18 14 12 9 9 15 11 11 11 6 6 8 11 12 9 9 9 10 13 15 16 16 17 19 17 16 17 16 16 17 17 16 17 17 19 20 17 19
1 8 7 9 12 13 10 9 8 4 0 12 11 10 11 11 7 5 14 11 12 16 18 18 20 21 20 18 19 20 19 16 17 17 17 19 21 22 22 22 22 22 23 22
7 2 8 9 7 2 11 9 9 5 6 8 10 10 11 9 11 15 18 17 20 19 20 21 21 21 22 22 22 21 22 20 20 20 20 20 20 21 23 25 26 25 26 26
3 6 9 7 9 1 10 6 7 5 8 11 12 13 14 14 16 17 17 15 15 17 21 23 22 20 21 23 24 21 20 22 23 22 20 20 20 22 24 27 26 26 27 30
2 3 4 6 4 6 10 10 8 9 9 11 12 13 14 16 18 18 16 15 14 20 21 21 21 21 18 19 20 19 24 26 25 24 23 22 24 25 23 25 26 27 26 27
7 5 2 5 7 7 8 8 11 11 12 14 15 16 16 18 19 21 18 16 14 22 22 24 22 20 21 21 19 21 25 28 27 26 24 25 23 25 27 27 26 26 26 26
5 3 3 5 9 7 8 11 11 12 12 13 15 17 19 20 20 19 17 15 16 19 22 21 22 24 25 25 27 26 25 26 29 28 27 24 23 24 27 26 25 25 27 27
6 6 3 6 9 5 8 10 11 12 13 15 16 16 13 13 16 19 15 18 22 21 26 26 25 26 25 26 26 27 27 27 25 23 23 23 21 21 24 25 27 27 32 35
Wind_Direction
210 249 243 352 2 16 338 299 327 290 358 274 261 291 278 225 226 173 181 169 172 181 180 174 194 185 187 175 172 182 183 175 178 189 181 203 192 200 212 226 233 215 206 200
223 247 278 60 43 327 297 273 279 26 354 246 239 239 280 321 245 231 203 174 177 178 169 174 179 183 194 174 173 178 178 192 200 202 205 211 210 221 215 220 229 221 203 218
244 201 69 305 267 252 258 308 44 320 291 258 252 227 150 112 210 207 242 191 184 179 176 176 175 186 186 177 173 179 181 201 214 217 218 221 222 228 216 214 221 221 211 219
236 274 146 304 252 276 298 37 329 308 300 303 198 143 315 15 351 153 165 191 178 186 197 171 174 180 185 176 184 184 183 190 209 217 210 212 212 184 211 211 218 213 212 220
234 231 280 227 270 284 311 339 309 284 273 277 232 137 8 43 339 300 119 31 188 190 199 20 226 176 185 163 178 190 184 187 197 203 207 221 224 225 212 210 223 208 215 224
277 310 258 278 232 259 290 281 272 258 245 262 304 133 13 88 244 272 146 202 36 333 110 143 232 167 174 162 156 173 180 197 203 200 211 218 225 236 211 196 207 218 223 222
226 251 251 232 277 271 251 256 263 261 256 8 284 65 171 196 221 245 73 60 42 310 26 84 139 154 154 143 157 160 173 183 203 216 215 215 224 230 234 222 203 216 220 218
216 219 204 210 228 265 270 274 292 12 312 208 290 136 168 200 208 98 107 83 72 52 42 30 47 115 145 155 170 172 168 177 184 195 219 223 222 225 226 226 229 215 221 234
301 150 171 108 213 230 246 250 270 238 221 195 16 1 115 124 110 115 97 89 71 64 47 20 10 24 68 152 156 144 169 177 187 201 209 224 229 228 231 235 238 238 231 267
284 220 183 149 231 251 269 313 295 308 16 356 72 41 248 45 49 74 65 97 81 74 3 354 5 15 38 104 153 129 173 173 188 229 217 221 236 242 239 249 258 259 260 249
266 287 162 245 202 241 198 241 244 307 295 148 226 218 260 152 68 30 92 88 123 140 164 125 103 58 25 48 45 71 170 198 198 207 225 216 221 241 248 240 249 247 249 251
246 285 293 219 217 215 221 281 259 280 295 320 323 83 44 27 96 96 348 66 62 36 116 165 158 153 120 102 46 45 14 357 331 315 274 212 233 230 239 243 247 248 244 241
350 233 260 257 204 360 334 305 280 277 274 301 269 124 331 219 116 47 37 30 76 57 22 24 275 92 84 89 63 22 35 14 327 304 277 249 240 222 241 264 263 267 246 233
321 293 305 300 8 152 238 294 306 295 289 303 309 150 174 87 86 78 61 33 344 110 92 341 117 149 74 46 47 15 29 359 6 344 29 37 16 44 352 301 283 266 264 247
252 259 276 293 322 19 196 202 256 251 293 298 315 318 346 69 72 74 70 32 44 346 60 24 4 6 14 48 346 341 3 18 357 1 40 36 28 4 333 301 288 269 244 238
237 260 279 285 287 285 288 285 288 253 290 302 299 323 63 74 76 57 53 6 353 348 77 28 244 266 277 210 205 214 265 318 341 332 344 348 333 320 318 314 324 295 273 258
310 311 325 299 311 315 303 302 339 332 356 353 340 13 48 47 57 58 23 348 313 338 302 257 319 314 305 303 281 244 211 270 289 306 301 300 310 308 304 302 300 304 296 300
297 296 294 284 286 276 280 302 19 352 337 348 333 26 56 28 359 344 333 232 246 278 300 341 315 285 284 281 320 334 317 298 275 261 266 274 280 281 278 286 289 285 284 288
346 306 286 284 271 278 281 39 25 30 31 26 360 9 9 9 349 309 40 25 10 348 330 300 291 300 310 308 297 288 283 278 268 262 263 269 272 274 273 269 271 275 278 275
197 311 287 274 285 284 67 59 15 349 250 29 14 11 6 358 309 277 354 336 321 309 306 305 303 300 298 297 294 292 287 284 282 288 283 273 270 269 269 272 270 269 272 272
283 221 273 265 243 168 25 358 318 269 42 354 13 352 336 322 318 317 314 316 319 317 309 304 302 294 290 288 282 274 272 265 267 267 267 269 274 276 274 271 270 269 269 269
299 275 287 291 258 212 10 39 28 13 354 348 334 331 325 318 315 315 315 310 303 298 297 297 293 289 288 287 289 288 284 284 276 269 264 263 264 266 269 273 269 266 263 264
241 11 354 14 29 119 52 36 15 357 343 339 330 320 318 316 312 306 300 300 301 299 301 310 317 323 332 327 314 299 294 295 288 278 270 268 270 269 266 265 270 270 266 266
127 63 314 351 67 29 38 29 21 2 346 335 327 321 309 307 323 343 353 341 332 328 326 325 324 319 311 305 298 297 296 292 284 274 267 267 264 264 263 262 260 261 259 257
81 173 130 271 48 14 52 15 354 331 321 313 326 354 346 334 330 329 325 322 316 313 313 313 311 302 297 298 296 288 285 284 285 280 281 266 261 258 260 260 261 258 262 261
44 47 13 55 57 14 352 342 328 328 330 1 345 335 321 321 347 345 329 326 327 327 315 309 307 309 304 307 298 295 292 286 278 272 264 262 261 260 265 260 261 258 257 260